Location: G?upczów
(50.3156°N, 20.2828°E)
Time: 08:54:47
(UTC+00:00)

Daily predictions for brighter satellites

Satellite Brightness Start Highest point End
(mag) Time Altitude Azimuth Time Altitude Azimuth Time Altitude Azimuth
CZ-4C R/B 3.2 19:21:21 10° NW 19:28:11 69° SW 19:36:44 10° SSE
USA 245 3.5 19:27:42 10° SE 19:31:15 44° ENE 19:34:12 10° N
Cosmos 1833 Rocket 4.2 19:30:00 10° NNW 19:34:47 27° NE 19:39:32 10° E
ATLAS 5 CENTAUR R/B 4.4 19:30:31 10° SSE 19:34:59 25° E 19:45:52 10° NE
SL-14 R/B 3.7 19:32:33 10° SSE 19:36:01 39° E 19:39:32 10° NNE
Cosmos 1238 Rocket 3.5 19:32:17 10° SSW 19:37:10 80° W 19:41:56 10° N
Cosmos 1066 Rocket 4.3 19:36:25 10° S 19:42:05 76° E 19:47:56 10° NNE
Cosmos 1151 Rocket 4.1 19:38:24 10° SSE 19:42:06 28° E 19:45:50 10° NNE
Meteor 2-4 Rocket 4.0 19:38:12 10° SSW 19:43:57 79° WNW 19:49:53 10° N
SL-16 R/B 4.3 19:40:46 10° NW 19:44:54 21° W 19:49:00 10° SSW
NOSS 2-2 (E) 3.3 19:43:00 10° SW 19:46:16 61° NW 19:49:15 10° NE
Cosmos 1844 3.8 19:40:48 10° SSW 19:46:30 63° ESE 19:52:14 10° NE
SL-24 R/B - RUBIN 2 3.6 19:42:20 10° SSW 19:46:47 56° SE 19:51:04 10° NE
SL-08 R/B 3.6 19:42:27 10° N 19:47:02 68° WNW 19:51:34 10° SSW
NOSS 3-2 (C) 4.3 19:45:40 10° SSE 19:49:29 22° ESE 19:53:48 10° ENE
CZ-4B R/B 3.7 19:45:13 10° SSE 19:50:12 62° ENE 19:55:20 10° N
Cosmos 1766 Rocket 4.5 19:46:51 10° NNW 19:51:04 47° W 19:55:17 10° SSW
Cosmos 1953 4.1 19:50:19 10° NNE 19:52:33 16° ENE 19:54:48 10° ESE
Okean O Rocket 2.4 19:49:00 10° S 19:53:13 50° W 19:57:29 10° NNW
In-Cosmos 22 4.4 19:48:25 10° S 19:54:03 61° E 19:59:44 10° NNE
CZ-2C R/B 3.4 19:52:29 11° SE 19:54:41 25° ENE 19:57:01 10° N
Cosmos 1943 4.3 19:52:36 10° NW 19:57:47 39° WSW 20:02:56 10° S
ATLAS 2AS CENTAUR R/B 4.2 19:54:57 10° WNW 20:00:30 27° WSW 20:06:03 10° SSW
Cosmos 1655 Rocket 4.2 19:58:45 10° NNW 20:05:07 77° W 20:11:28 10° S
Cosmos 1461 2.6 20:05:11 10° NW 20:08:41 64° SW 20:11:30 14° SSE
Meteor 1-18 Rocket 4.4 20:03:39 10° S 20:09:28 88° WNW 20:15:25 10° NNE
Cosmos 2298 Rocket 4.4 20:05:17 10° NNW 20:10:31 60° WSW 20:15:42 10° S
CZ-4B R/B 2.9 20:07:53 10° S 20:11:42 73° WSW 20:15:40 10° NNW
USA 186 3.3 20:11:59 10° SSW 20:13:47 19° W 20:15:32 10° NW
Cosmos 1607 4.1 20:09:12 10° NW 20:15:37 89° NE 20:21:26 13° SE
Cosmos 1500 Rocket 3.5 20:11:47 10° N 20:16:08 72° E 20:19:50 14° SSE
Sich 1 3.5 20:12:29 10° NNW 20:16:41 59° W 20:20:53 10° S
Iridium 4 Rocket 4.0 20:15:34 13° SSE 20:20:14 46° E 20:25:04 10° NNE
GP-B 3.3 20:16:18 10° N 20:20:37 55° E 20:24:13 14° SSE
Cosmos 2285 Rocket 4.1 20:16:11 10° NNW 20:22:35 90° ENE 20:28:11 14° SSE
NOSS 2-3 (D) 4.2 20:20:35 13° S 20:23:10 26° ESE 20:26:20 10° ENE
Helios 1B rocket 4.2 20:24:13 10° E 20:26:21 16° ENE 20:28:29 10° NNE
Terra 4.4 20:24:23 10° WSW 20:26:41 13° W 20:28:58 10° WNW
CENTAUR R/B 3.7 20:25:10 10° WSW 20:30:55 49° NNW 20:38:12 10° NE
Cosmos 1758 4.1 20:27:45 10° NNW 20:31:16 42° W 20:34:45 10° SSW
Cosmos 1943 Rocket 3.9 20:35:06 12° SE 20:37:27 16° E 20:40:41 10° ENE
BREEZE-M DEB (TANK) 1.9 20:36:57 10° W 20:38:59 43° SSW 20:39:51 26° SE
Iridium 45 4.4 20:45:08 24° SSE 20:46:42 50° E 20:49:43 10° NNE
Ariane Rocket 3.9 20:44:08 10° S 20:48:53 43° W 20:53:44 10° NNW
Cosmos 1328 Rocket 4.3 20:47:48 19° SSE 20:50:22 38° E 20:54:25 10° NNE
NOSS 2-3 (E) 3.3 20:47:13 11° SSW 20:50:33 47° SE 20:54:12 10° NE
Cosmos 1805 Rocket 4.3 20:49:01 10° NNW 20:53:09 45° W 20:56:46 13° SSW
USA 215 3.3 20:50:09 14° SE 20:55:50 71° SW 21:02:23 10° WNW
Lacrosse 5 rocket 2.5 20:57:40 19° ESE 20:57:40 19° ESE 20:59:48 10° E
Cosmos 1666 Rocket 3.7 20:53:28 10° N 20:57:48 61° ENE 21:00:30 22° SSE
NOSS 3-2 (A) 3.7 20:53:04 10° WSW 20:58:11 63° NW 21:04:26 10° NE
Cosmos 1743 Rocket 3.9 21:00:29 10° NNW 21:04:45 58° W 21:07:49 18° S
Cosmos 1703 3.1 21:04:34 18° SSW 21:06:46 58° WNW 21:09:56 10° N
S3M 4.0 21:04:02 17° S 21:08:44 70° E 21:14:51 10° NNE
GEOS 3 Rocket 3.9 21:04:15 14° SE 21:08:52 71° NE 21:14:15 10° NW
Cosmos 1844 Rocket 4.3 21:04:33 10° WSW 21:09:40 36° NW 21:14:49 10° NNE
Meteor 1-22 Rocket 4.2 21:04:25 10° NNW 21:09:45 71° W 21:13:31 19° S
Meteor 1-15 Rocket 4.3 21:08:55 10° NNW 21:14:48 89° E 21:18:45 21° S
USA 59 Rocket 1.8 21:16:04 11° E 21:16:04 11° E 21:16:19 10° E
Cosmos 1833 Rocket 2.7 21:13:36 10° NNW 21:19:15 73° WSW 21:22:56 22° SSE
ARGOS Delta rocket 4.4 21:14:29 10° NNE 21:19:45 51° E 21:22:52 23° SSE
Cosmos 1709 Rocket 4.0 21:13:54 10° N 21:20:17 89° W 21:24:50 21° S
Meteor 1-16 Rocket 4.3 21:17:35 10° N 21:23:05 72° ENE 21:26:46 22° SSE
Spot 4 4.3 21:20:33 20° SE 21:23:38 52° ENE 21:28:19 10° N
Cosmos 883 Rocket 4.5 21:19:18 19° S 21:23:47 74° E 21:29:56 10° NNE
Cosmos 2082 Rocket 3.5 21:19:31 10° NNW 21:24:41 35° NE 21:29:47 10° ESE
CZ-2C R/B 4.4 21:23:48 12° SW 21:25:12 15° W 21:26:57 10° NW
Cosmos 1953 2.8 21:24:17 10° NNW 21:27:44 45° W 21:29:35 23° SSW
Meteor 1-23 Rocket 4.2 21:25:42 22° S 21:29:22 67° E 21:34:55 10° NNE
Cosmos 2278 Rocket 3.2 21:28:07 21° SE 21:30:39 30° ESE 21:35:32 10° NE
IKONOS-2 4.5 21:26:33 10° NNE 21:30:41 77° WNW 21:33:24 20° SSW
Cosmos 1633 Rocket 3.2 21:31:20 10° NNW 21:35:42 69° W 21:38:07 26° S
NOSS 3-2 (C) 3.4 21:34:20 10° SW 21:39:27 75° NW 21:45:43 10° NE
Cosmos 1624 Rocket 4.2 21:38:21 10° NNW 21:43:39 69° ENE 21:47:03 22° SE
NOSS 2-3 (C) 2.9 21:42:37 16° SW 21:45:11 85° NW 21:48:53 10° NE
Cosmos 1680 Rocket 3.8 21:42:32 25° S 21:45:14 50° ESE 21:50:16 10° NNE
CZ-2C R/B 4.2 21:41:03 10° NNE 21:46:00 32° E 21:48:40 21° SE
Cosmos 494 Rocket 4.5 21:44:46 25° SSE 21:47:19 44° ESE 21:52:18 10° NE
Meteor 1-12 Rocket 4.3 21:41:40 10° N 21:47:22 80° ENE 21:50:53 25° SSE
Cosmos 1400 Rocket 3.0 21:45:53 10° N 21:49:31 51° ENE 21:51:03 29° SE
Cosmos 2056 Rocket 3.5 21:45:16 10° NNW 21:50:24 79° ENE 21:53:26 25° SSE
USA 238 DEB 3.9 21:48:54 23° S 21:52:25 46° ESE 21:58:46 10° NE
USA 238 3.9 21:49:09 23° S 21:52:38 46° ESE 21:58:58 10° NE
Helios 1A 3.6 21:50:57 10° N 21:54:45 48° WNW 21:57:27 18° SW
ACS3 Solar Sail 3.3 21:52:17 10° NE 21:56:34 21° E 21:59:49 14° SE
Cosmos 2344 3.4 21:50:03 10° SSW 21:57:50 77° SE 22:05:03 10° NE
Helios 1B rocket 2.5 21:57:42 31° SSW 21:58:55 48° WSW 22:02:18 10° NNW
ARIANE 5 R/B 2.6 21:59:12 29° S 22:01:26 76° WSW 22:05:54 10° NNW
BREEZE-M R/B 4.4 21:58:11 10° SW 22:03:26 59° SSE 22:14:17 10° ENE
Cosmos 1470 Rocket 4.1 22:03:10 10° NNW 22:07:29 49° W 22:09:41 26° SSW
Cosmos 1812 3.2 22:06:33 10° N 22:07:25 21° NNE 22:07:25 21° NNE
Okean 2 3.4 22:07:03 29° SSW 22:08:52 67° WNW 22:12:42 10° N
ALOS 2 2.7 22:11:55 30° S 22:13:58 67° WSW 22:18:22 10° NNW
Cosmos 1933 Rocket 3.4 22:10:36 10° N 22:14:56 89° WSW 22:16:54 32° S
Cosmos 1943 Rocket 2.1 22:16:32 22° SSW 22:20:20 85° ESE 22:26:00 10° NNE
Cosmos 2074 Rocket 4.0 22:15:22 10° N 22:21:38 88° E 22:25:27 25° S
Cosmos 1441 Rocket 2.9 22:21:17 44° SSE 22:22:01 59° E 22:25:13 10° NNE
NOSS 2-1 (E) 3.8 22:23:41 33° SE 22:24:02 34° SE 22:27:00 10° ENE
Cosmos 1295 Rocket 4.5 22:18:59 10° NNW 22:25:06 77° W 22:28:44 26° S
Cosmos 923 Rocket 4.4 22:21:16 17° SW 22:25:13 62° WNW 22:30:26 10° NNE
CZ-2C R/B 4.3 22:22:07 10° N 22:26:41 53° WNW 22:29:46 20° SW
Cosmos 2112 Rocket 4.0 22:28:53 24° SSW 22:32:01 85° WNW 22:37:14 10° NNE
Lacrosse 5 rocket 0.9 22:30:44 17° WSW 22:33:24 79° NNW 22:36:55 10° NE
CZ-2C R/B 2.6 22:31:43 25° SSE 22:34:46 78° ENE 22:40:01 10° NNW
USA 81 4.5 22:32:54 10° NNW 22:38:01 52° W 22:40:53 25° SSW
USA 215 4.4 22:37:29 20° SSW 22:39:37 24° SW 22:44:44 10° WNW
PSLV R/B 4.1 22:37:28 10° N 22:42:02 60° WNW 22:44:44 24° SW
Timation 2 Rocket 4.1 22:42:27 25° SSW 22:46:14 69° ESE 22:52:45 10° NE
Cosmos 1869 Rocket 3.7 22:42:41 10° NNW 22:46:55 58° W 22:48:44 31° SSW
Cosmos 1452 Rocket 3.7 22:43:06 10° NNW 22:48:23 70° ENE 22:52:03 20° SE
Cosmos 1110 Rocket 3.9 22:43:16 10° NNW 22:48:29 81° WSW 22:51:24 27° SSE
MetOp-A 3.6 22:53:36 33° SSW 22:55:04 55° WSW 22:58:51 10° NNW
Nadezhda 1 Rocket 3.9 22:51:54 26° S 22:55:35 84° E 23:01:49 10° N
IRIDIUM 104 4.4 22:50:45 10° N 22:55:59 72° E 22:59:01 25° SSE
NOSS 2-1 (D) 2.7 22:55:58 33° SW 22:57:22 88° NW 23:00:25 10° NE
Cosmos 2154 Rocket 4.2 22:52:05 10° NNW 22:58:10 59° W 23:01:51 24° SSW
Cosmos 2184 Rocket 4.4 22:53:06 10° NNW 22:59:09 54° W 23:02:54 24° SSW
NOSS 2-1 (C) 2.7 22:59:06 36° SW 23:00:23 83° SE 23:03:26 10° NE
USA-17 4.2 22:58:38 10° NW 23:01:45 60° SW 23:02:26 46° S
USA 59 Rocket -0.5 23:01:30 26° WSW 23:03:11 63° NW 23:06:07 10° NE
IRIDIUM 114 4.3 22:59:54 10° N 23:05:09 85° E 23:08:09 26° S
Cosmos 1707 Rocket 3.9 23:03:12 29° SSE 23:05:14 56° E 23:09:33 10° NNE
NOSS 3-1 (C) 4.4 23:04:15 18° SE 23:05:57 21° ESE 23:09:54 10° ENE
Cosmos 1733 Rocket 2.9 23:02:46 10° N 23:07:05 87° WSW 23:09:08 31° S
Cosmos 1315 Rocket 3.4 23:04:47 10° N 23:08:28 46° ENE 23:10:36 22° SE
Cosmos 2082 Rocket 2.5 23:03:31 10° NW 23:08:57 51° WSW 23:11:52 26° S
Cosmos 2341 Rocket 4.3 23:03:29 10° N 23:09:44 65° ENE 23:14:23 18° SSE
IRIDIUM 103 4.3 23:09:03 10° N 23:14:19 82° W 23:17:17 26° S
Cosmos 2278 Rocket 2.8 23:09:54 15° SW 23:14:27 54° NW 23:20:02 10° NNE
Cosmos 1862 Rocket 3.5 23:13:23 31° S 23:15:24 78° E 23:19:42 10° NNE
ATLAS 5 CENTAUR R/B 2.7 23:16:46 15° ESE 23:16:46 15° ESE 23:18:31 10° E
Cosmos 1656 Rocket 3.8 23:13:56 26° S 23:16:56 62° ESE 23:22:25 10° NE
Cosmos 1331 Rocket 4.4 23:16:09 10° NNW 23:21:04 47° WSW 23:23:34 26° SSW
Okean 1-7 2.9 23:20:00 31° S 23:21:57 89° WNW 23:26:12 10° N
SL-8 Rocket 4.0 23:18:39 10° N 23:24:51 84° E 23:29:14 20° SSE
CZ-2C R/B 3.9 23:20:36 10° N 23:25:56 46° WNW 23:29:38 18° SW
COSMOS 2406 3.2 23:21:41 10° NNW 23:27:23 74° WSW 23:31:27 20° SSE
Cosmos 1048 Rocket 4.5 23:31:19 19° SW 23:34:54 54° WNW 23:40:05 10° NNE
SL-12 R/B(2) 4.5 23:30:21 21° SSW 23:35:59 64° ESE 23:45:32 10° NE
Cosmos 1908 Rocket 3.9 23:34:22 10° N 23:38:47 63° ENE 23:41:54 19° SSE
ACS3 Solar Sail 1.7 23:33:40 10° N 23:39:22 72° WNW 23:43:11 22° SSW
USA 238 DEB 4.3 23:37:11 10° WSW 23:43:17 53° NW 23:50:07 10° NE
USA 238 4.3 23:37:22 10° WSW 23:43:29 53° NW 23:50:20 10° NE
Lacrosse 4 Rocket 3.1 23:40:09 10° NNW 23:44:02 34° NE 23:47:52 10° ESE
Cosmos 1959 Rocket 4.5 23:38:05 10° N 23:44:18 89° WSW 23:49:03 18° S
ARIANE 6 FM1 Upper Stage 3.9 23:43:05 21° SSE 23:44:38 27° ESE 23:48:08 10° ENE
Geosat 4.2 23:41:10 10° NNE 23:46:09 67° NW 23:49:42 19° SW
Cosmos 2297 4.4 23:44:14 20° S 23:47:51 45° ESE 23:53:17 10° NE
BREEZE-M DEB (TANK) 2.7 23:43:24 10° WNW 23:52:03 61° SSW 23:55:15 10° SE
